RH
20 20 21 19 19 19 25 30 34 22 23 26 22 22 18 17 20 20 16 13 17 20 15 18 21 25 30 29 29 30 32 32 32 28 19 25 32 29 26 22 15 14 19 27
18 26 24 25 25 26 29 38 43 24 26 27 25 24 16 21 19 17 13 12 16 20 12 10 15 21 24 27 32 33 33 33 28 18 18 24 29 19 29 23 23 21 24 29
23 23 28 26 24 27 28 37 35 39 27 33 34 31 13 18 24 21 21 20 19 20 20 15 13 16 22 25 30 35 35 30 22 19 17 40 52 59 54 61 64 46 29 31
25 26 26 24 20 25 47 26 33 32 46 56 30 55 16 10 13 16 16 17 17 18 20 12 13 20 28 27 38 33 33 31 23 20 29 52 60 63 64 69 67 54 39 34
30 26 26 24 22 27 28 35 30 39 54 58 43 61 28 15 10 10 11 13 15 17 22 14 16 18 20 25 28 32 34 31 27 14 39 58 68 72 73 74 76 78 64 43
28 36 33 30 31 30 31 32 39 40 43 66 55 45 34 16 16 8 9 12 15 18 16 13 14 17 20 22 25 28 37 25 16 37 54 66 72 74 76 78 79 79 80 78
37 30 36 39 38 32 40 62 92 90 93 58 42 43 58 22 12 9 10 12 16 16 13 13 15 18 23 32 42 40 38 47 49 51 58 70 74 77 78 78 78 82 84 83
54 48 39 41 55 58 45 61 78 75 50 41 37 55 37 18 14 14 16 17 14 10 15 17 19 29 36 36 38 39 43 50 57 64 73 76 78 77 80 82 83 84 85 89
61 48 42 46 43 55 52 58 40 67 55 54 34 34 26 16 15 14 13 15 15 18 22 26 33 36 37 36 36 43 47 54 62 75 80 84 85 86 86 86 87 88 89 91
53 80 36 49 52 45 56 52 68 70 73 73 42 50 39 36 22 16 12 14 20 22 29 38 39 37 36 36 34 41 50 60 74 84 87 88 90 92 94 93 93 92 92 93
60 66 53 48 63 63 56 66 58 63 53 69 69 54 90 67 70 69 31 29 34 40 43 44 34 28 24 27 26 46 58 70 80 86 90 94 96 97 97 97 94 91 94 96
60 62 75 55 76 69 66 62 61 54 72 58 65 68 69 86 82 56 47 39 42 52 50 42 34 24 34 30 35 57 65 78 84 92 96 99 100 100 100 100 99 97 95 96
69 74 79 78 79 70 70 69 68 65 60 69 71 74 74 60 59 54 57 50 54 56 62 48 30 25 30 42 48 63 67 85 92 98 100 100 100 100 100 100 100 100 96 96
52 64 79 68 68 73 84 75 72 63 72 62 67 58 51 59 69 61 56 57 52 58 71 54 32 36 32 40 55 66 68 94 99 100 100 100 100 100 100 100 100 98 100 100
54 72 50 51 52 61 70 71 79 72 59 66 57 66 58 58 61 57 58 58 61 77 79 62 36 31 31 52 55 61 72 98 100 100 100 100 100 100 100 100 100 97 97 100
66 81 71 70 52 69 82 71 76 78 70 71 65 69 55 51 57 63 59 65 69 73 87 50 26 31 39 51 57 62 85 100 100 100 100 100 100 100 100 100 98 98 94 99
71 71 67 71 50 56 84 81 75 74 75 68 78 60 90 64 67 66 61 65 71 76 60 27 32 35 48 56 65 75 91 96 94 100 100 100 100 100 100 100 99 98 97 95
63 63 60 73 57 66 92 67 69 69 73 76 70 64 61 65 60 65 50 61 68 78 34 32 32 40 51 58 64 78 85 94 96 100 100 100 100 100 100 100 99 98 100 96
48 42 66 75 68 52 45 58 62 62 63 64 73 70 66 64 77 63 64 68 70 81 59 31 29 41 51 61 68 81 84 100 100 100 100 100 100 99 100 100 99 98 98 98
51 47 58 73 84 78 53 39 43 54 72 58 61 61 64 63 76 70 59 63 55 65 30 29 29 42 50 61 72 82 86 98 100 100 96 98 96 98 97 100 100 99 98 100
71 68 76 69 82 59 38 39 41 60 64 51 53 61 64 75 67 57 54 54 44 56 26 29 38 47 53 64 78 82 90 95 100 98 95 96 98 97 97 97 100 98 98 100
76 81 81 72 90 82 42 43 50 46 45 48 52 57 62 64 65 62 59 50 42 56 25 30 46 49 52 62 82 86 93 97 97 97 94 96 95 97 97 100 100 95 96 100
81 69 66 54 51 38 41 43 42 45 50 50 58 59 64 67 66 61 55 45 53 39 27 36 53 57 51 64 79 93 95 96 99 95 96 96 95 98 97 98 100 99 95 100
60 53 57 54 43 43 44 46 47 47 52 55 59 62 63 66 66 57 53 41 65 30 27 44 57 61 56 64 75 92 95 99 100 93 98 95 96 97 98 96 93 100 98 98
57 61 59 58 50 47 44 48 50 52 56 61 60 71 73 73 68 60 50 49 64 29 37 50 61 65 62 72 78 88 94 100 94 91 96 99 96 96 97 97 95 92 96 95
67 66 63 53 39 49 55 55 50 60 60 65 76 69 72 76 63 52 41 87 38 31 45 56 55 62 62 70 78 86 97 100 94 94 99 98 98 96 96 97 97 95 98 97
Wind_Speed
7 10 8 6 6 3 4 5 11 8 4 12 6 21 20 17 17 18 14 11 11 12 12 15 17 18 23 28 29 29 29 29 32 38 42 40 37 38 37 35 36 31 28 26
3 5 1 2 1 3 3 6 8 9 1 9 12 25 13 5 11 16 14 13 13 13 12 12 14 16 20 24 26 27 27 29 34 39 45 42 38 40 36 36 33 28 27 26
6 3 2 4 2 6 4 4 5 8 14 2 14 8 4 4 9 12 17 17 17 18 15 12 14 17 20 24 26 25 28 31 37 44 46 34 29 28 28 24 22 26 26 27
5 2 2 4 3 2 4 1 5 14 10 4 6 5 5 4 10 13 18 18 19 18 19 17 17 19 21 24 24 28 34 37 41 51 38 31 29 29 27 26 27 29 29 28
2 1 2 4 2 0 4 5 8 3 3 3 1 3 5 2 7 12 16 17 16 15 17 21 22 22 22 24 28 34 38 42 49 45 32 30 30 28 27 26 27 26 27 29
2 1 2 5 4 6 8 4 3 3 2 2 1 5 7 5 5 3 7 11 13 12 15 18 21 23 26 22 25 32 36 46 40 33 31 30 30 31 30 28 27 26 24 24
2 2 2 4 5 2 3 4 4 3 2 4 4 6 11 7 7 7 6 9 10 12 16 18 18 20 23 23 25 30 30 30 31 32 33 32 31 30 31 30 29 28 26 24
6 4 4 5 3 3 4 2 2 6 7 13 4 7 3 4 3 8 12 14 16 16 15 17 20 21 21 24 27 28 29 31 31 31 31 31 32 33 31 29 29 29 28 26
6 4 3 6 2 2 2 1 1 1 1 4 3 8 15 4 7 10 11 10 14 14 15 18 19 20 23 24 26 28 31 32 32 32 31 29 29 30 32 30 29 30 29 29
2 7 2 4 2 6 2 3 1 1 5 7 5 7 10 9 4 5 5 8 15 16 18 21 23 23 23 26 30 31 31 32 32 31 30 29 28 28 30 31 31 31 31 31
3 2 1 2 6 5 3 2 1 1 2 4 6 8 6 9 3 6 7 14 25 26 28 28 28 26 26 30 31 30 32 31 32 30 29 28 28 28 28 30 31 32 31 30
2 1 7 3 3 2 2 1 4 3 3 1 3 11 3 6 6 8 18 30 39 36 35 33 28 26 27 31 30 28 31 31 32 29 29 29 28 28 29 30 31 30 32 31
7 2 7 3 2 1 5 4 1 2 1 9 4 8 5 4 5 17 24 34 36 35 38 35 29 28 31 29 30 30 32 31 31 29 29 30 29 30 31 31 33 32 33 34
6 3 8 12 14 1 7 8 7 5 5 5 14 27 30 18 15 20 30 32 38 36 37 35 31 28 32 31 30 31 35 32 30 29 30 31 30 30 32 31 33 34 33 34
2 6 8 20 22 17 24 18 11 14 16 11 27 13 30 27 26 36 37 36 35 35 30 32 31 35 35 32 32 34 36 33 30 29 30 31 31 31 31 31 33 36 36 36
3 4 2 12 5 11 15 13 18 20 19 22 29 36 31 44 32 28 33 32 35 42 34 37 34 37 36 34 35 37 37 32 30 30 30 30 30 32 32 31 33 35 36 36
5 3 4 8 5 11 8 8 13 8 10 8 10 18 5 13 16 23 32 37 41 43 36 34 37 37 36 36 36 38 37 34 33 29 29 28 29 31 31 29 34 33 35 36
6 3 3 7 9 4 4 4 4 12 11 20 17 19 24 26 33 31 44 42 35 34 32 35 36 36 35 35 36 37 38 36 32 30 28 28 28 30 30 30 34 31 32 36
4 4 5 4 5 12 13 3 2 1 7 13 19 20 27 31 24 25 21 21 27 28 32 32 33 33 36 36 36 38 38 33 30 29 28 27 31 30 32 29 29 35 31 33
4 5 5 2 4 8 7 3 5 4 11 8 6 17 21 18 16 20 29 30 34 32 30 31 32 32 33 34 34 36 36 35 30 30 31 30 27 31 30 28 26 28 29 29
3 5 10 10 7 11 14 4 4 9 15 34 31 29 29 18 23 50 49 41 36 31 30 31 32 33 34 34 34 35 36 34 33 33 31 28 30 28 27 25 21 22 26 25
8 6 6 5 6 10 8 6 6 18 37 34 42 38 45 45 47 46 44 41 31 31 29 30 32 33 33 35 35 35 36 34 34 34 31 29 27 22 22 17 15 16 19 22
5 8 5 11 9 11 19 23 35 45 36 45 36 48 45 45 46 44 40 37 30 27 29 30 32 34 34 35 35 35 36 34 36 36 33 30 25 18 22 16 15 17 20 20
7 12 7 7 10 27 30 39 35 33 34 43 48 48 48 45 46 43 41 30 29 27 29 30 32 34 37 36 35 33 35 35 35 37 36 29 26 16 23 19 16 19 21 24
12 3 15 17 25 39 15 21 42 44 45 44 48 39 39 42 44 38 31 25 27 27 28 28 31 34 37 38 35 34 36 37 38 37 35 29 24 18 16 26 22 21 24 26
12 8 6 14 26 25 33 45 48 44 43 41 42 50 41 33 35 28 22 25 24 28 27 29 30 33 36 37 35 36 39 38 38 38 35 30 24 23 18 20 26 21 20 21
Wind_Direction
28 58 41 33 47 78 291 272 273 274 340 330 293 290 285 276 245 237 241 253 269 283 300 290 283 269 256 259 263 269 276 288 296 304 308 308 305 304 302 301 301 299 291 287
110 69 64 176 180 315 271 274 288 299 165 323 307 297 297 251 217 216 228 242 257 272 286 294 292 276 264 263 265 268 274 285 295 307 310 303 300 299 296 295 294 293 287 282
71 99 189 226 226 331 253 256 317 289 319 294 307 270 232 185 237 240 243 250 257 259 266 276 282 276 271 267 265 268 273 282 298 312 306 299 296 294 294 293 290 290 285 280
80 147 241 237 259 345 300 25 312 313 334 312 360 289 266 232 254 242 248 245 255 257 261 268 273 271 268 271 269 268 269 279 292 306 299 294 289 286 284 283 283 283 282 277
59 320 282 257 21 303 333 323 309 293 255 301 106 267 259 316 261 247 238 240 251 260 263 269 275 275 277 277 278 275 274 282 294 298 293 290 285 283 284 281 281 281 279 275
88 92 353 339 294 243 314 286 218 212 243 245 104 356 280 210 210 216 225 233 244 264 275 279 284 285 283 283 290 290 286 290 297 298 294 286 282 281 280 277 277 277 275 273
315 133 82 3 312 169 302 283 308 313 296 305 153 276 257 256 240 253 256 250 258 277 290 289 294 295 289 280 293 295 297 295 297 295 293 288 282 279 276 274 274 273 270 268
359 315 16 1 56 327 8 353 14 305 314 307 123 233 243 210 278 257 258 269 274 276 301 298 299 297 296 293 297 300 299 297 296 293 287 285 281 277 274 271 270 267 268 265
341 270 137 40 78 349 36 245 18 142 206 289 255 269 273 260 243 247 256 263 274 278 295 302 304 300 300 301 302 302 302 301 298 293 288 284 278 274 275 273 270 266 263 262
156 288 106 144 132 65 304 99 236 131 302 298 257 284 258 279 282 234 230 272 306 301 302 305 310 310 309 309 311 307 304 301 300 294 287 282 276 272 270 270 268 265 264 258
147 230 191 172 196 165 150 196 110 337 287 271 301 287 202 255 270 283 299 298 311 310 318 314 315 313 312 314 312 307 306 304 300 296 290 283 277 273 269 264 264 263 261 257
131 239 274 314 56 357 326 243 205 232 200 243 316 267 275 257 272 284 288 308 315 313 319 316 312 311 314 313 313 306 305 303 301 297 290 284 280 276 271 265 262 259 258 254
175 200 294 213 134 182 234 171 137 98 350 216 234 256 158 232 282 302 299 305 307 306 309 317 314 313 320 315 313 311 310 305 302 296 289 285 280 276 272 267 263 257 254 251
171 243 236 261 286 159 242 181 204 212 214 225 229 275 297 300 301 301 295 292 301 306 308 316 317 318 319 317 316 313 311 306 303 295 289 285 282 277 271 267 262 256 250 248
219 253 246 265 269 269 269 260 194 207 224 234 271 258 283 295 302 298 296 297 300 309 307 311 314 320 321 318 319 317 315 308 306 295 288 285 284 279 274 268 261 256 249 244
179 274 317 291 286 238 257 250 232 228 250 257 262 280 272 274 281 285 293 299 301 308 308 313 316 320 321 323 323 322 317 308 306 296 290 289 285 281 275 272 266 255 249 242
185 276 324 268 122 293 272 222 191 190 216 210 224 258 355 297 280 275 295 295 298 303 308 315 319 322 323 327 326 322 319 313 311 299 294 292 288 284 279 279 274 255 245 240
171 203 245 283 310 275 283 149 217 207 239 215 258 271 278 280 287 290 295 294 298 307 308 316 320 322 325 330 329 323 323 318 313 303 298 297 292 287 286 280 273 265 242 235
215 219 268 284 304 292 281 132 191 196 285 253 230 260 276 291 299 292 311 303 309 310 307 313 319 323 326 332 332 325 325 317 314 305 301 301 297 289 284 278 277 264 243 236
219 253 238 21 270 287 313 145 168 165 296 127 253 305 306 321 312 309 310 313 311 320 313 316 321 324 327 334 333 327 326 322 317 311 311 307 304 296 283 270 275 260 246 232
201 229 230 233 258 273 270 254 171 308 316 326 323 313 305 301 284 295 305 303 308 317 315 321 324 326 331 337 336 330 330 327 324 323 318 310 304 301 286 272 270 252 239 229
190 214 194 187 220 276 171 137 281 305 307 311 307 309 308 305 299 299 302 308 309 316 320 324 325 328 334 338 338 334 333 333 331 332 325 312 303 306 268 266 259 239 225 219
251 212 258 207 239 288 285 275 297 302 300 305 306 308 307 302 301 303 301 308 311 318 323 325 327 329 336 338 340 336 338 339 339 336 327 316 307 302 264 244 247 231 221 215
235 241 248 295 248 268 284 293 298 308 305 304 305 303 306 303 307 303 303 303 315 321 323 326 329 333 335 338 340 340 344 346 337 339 329 323 311 304 261 249 230 228 221 217
261 264 269 278 284 290 286 322 309 307 306 306 310 306 302 303 307 301 300 304 317 321 324 328 332 334 336 339 341 345 351 351 345 342 332 325 318 308 300 257 239 228 227 221
216 233 233 272 298 306 307 307 307 308 310 313 311 315 319 310 307 301 295 315 319 319 325 328 333 337 336 339 344 350 356 350 351 343 335 328 323 319 307 295 239 240 227 224